Flag for U.S.A. Weather past 2 weeks in Austin, Texas, U.S.A.

Now
72 °F

Passing clouds.


Feels Like: 68 °F
Forecast: 71 / 90 °F
Wind: No wind

Location: Camp Mabry / Austin City

Current Time: Jul 2, 2015 at 5:56:48 AM

Latest Report: Jul 2, 2015 at 4:51 AM


Visibility: 9 mi

Pressure: 29.98 "Hg

Humidity: 93%

Dew point: 70 °F

Location of AustinLocation

Historic Weather in Austin — Graph

°F

Austin temperature yesterday

Maximum temperature yesterday: 90 °F (at 2:51 PM)
Minimum temperature yesterday: 71 °F (at 3:51 AM)
Average temperature yesterday: 78 °F

Past Weeks' High & Low Weather Summary

 TemperatureHumidityPressure
High92 °F (Jun 24, 4:51 PM)97% (Jun 17, 6:51 AM)30.18 "Hg (Jun 17, 6:51 AM)
Low71 °F (Jul 1, 3:51 AM)50% (Jun 29, 3:51 PM)29.75 "Hg (Jun 17, 3:51 AM)
Average80 °F81%30.00 "Hg
* Reported Jun 17 3:51 AM — Jul 2 3:51 AM, Austin, Weather by CustomWeather, © 2015

Note: Actual official high and low records may vary slightly from our data, if they occured in-between our weather recording intervals... More about our weather records

Advertising

Austin weather history for previous 24 hours

 ConditionsComfort  
Time TempWeatherWind HumidityBarometerVisibility
3:51 AM
Thu, Jul 2
72 °FLow clouds.6 mph93%29.97 "Hg10 mi
2:59 AM71 °FPassing clouds.3 mph96%30.01 "Hg10 mi
1:51 AM72 °FClear.3 mph91%29.98 "Hg10 mi
12:51 AM72 °FClear.No wind93%30.00 "Hg10 mi
11:51 PM
Wed, Jul 1
74 °FClear.6 mph88%30.02 "Hg10 mi
10:51 PM75 °FClear.5 mph82%30.01 "Hg10 mi
9:51 PM77 °FClear.7 mph77%29.99 "Hg10 mi
8:51 PM78 °FSunny.3 mph74%29.97 "Hg10 mi
7:51 PM79 °FSunny.3 mph74%29.97 "Hg10 mi
6:51 PM79 °FSunny.6 mph74%29.97 "Hg10 mi
5:51 PM79 °FPassing clouds.6 mph77%29.98 "Hg10 mi
4:51 PM81 °FOvercast.7 mph74%30.01 "Hg10 mi
3:51 PM79 °FSunny.7 mph77%30.02 "Hg10 mi
2:51 PM90 °FSunny.5 mph56%29.99 "Hg10 mi
1:51 PM82 °FLight rain. Broken clouds.6 mph79%30.01 "Hg10 mi
12:51 PM87 °FPartly sunny.5 mph65%30.01 "Hg10 mi
11:51 AM86 °FWarm.6 mph65%30.02 "HgN/A
10:51 AM83 °FPartly sunny.6 mph74%30.03 "Hg10 mi
9:51 AM80 °FSunny.7 mph76%30.04 "Hg10 mi
8:51 AM77 °FSunny.3 mph82%30.03 "Hg10 mi
7:51 AM73 °FSunny.No wind94%30.03 "Hg10 mi
6:51 AM71 °FClear.No wind93%30.03 "Hg10 mi
5:51 AM71 °FClear.No wind93%30.01 "Hg10 mi
Weather by CustomWeather, © 2015

See weather overviewHow to use our weather pages